Zurück zum Katalog

BREEZE-M DEB

AktivMEO
NORAD 41547·DEBRIS·🇷🇺 Russia

Gestartet Dec 13, 2015 von Baikonur Cosmodrome

Loading…

Nächste Überflüge (nächste 24 Stunden)

TLE

AktuellSource: Space-Track

Epoche: Sep 10, 2026, 00:17 UTC

1 41547U 15075H   26253.01214816 -.00000299  00000-0  00000-0 0  9991
2 41547   8.8450  60.7919 0269373 142.4570 219.6311  1.03193797 40156

Verfolge BREEZE-M DEB in Echtzeit mit AllMySat

Download on the App Store